Location: Chantarel
(45.1638°N, 1.7873°E)
Time: 16:52:40
(UTC+00:00)

CZ-2C R/B - Pass Details

Date: 03 March 2021
Orbit: 784 x 871 km, 98.2° (Epoch: 11 April)

Event Time Altitude Azimuth Distance (km) Brightness Sun altitude
Rises 18:01:23 0° 24° (NNE) 3,425 5.6 -4.0°
Reaches altitude 10° 18:04:13 10° 37° (NE) 2,471 4.7 -4.5°
Maximum altitude 18:08:42 25° 92° (E) 1,604 3.6 -5.3°
Drops below altitude 10° 18:13:05 10° 148° (SSE) 2,408 4.8 -6.1°
Sets 18:15:47 0° 161° (SSE) 3,320 5.6 -6.6°
